Location: Brescia
(45.5500°N, 10.2500°E)
Time: 14:18:08
(UTC+01:00)

ISS - Visible Passes

Search period start: 24 January 2019 00:00
Search period end: 03 February 2019 00:00
Orbit: 404 x 410 km, 51.6° (Epoch: 24 January)

Date Brightness Start Highest point End Pass type
(mag) Time Alt. Az. Time Alt. Az. Time Alt. Az.
24 Jan -1.9 17:47:05 10° S 17:49:21 17° SE 17:51:38 10° E visible
24 Jan -2.9 19:22:15 10° WSW 19:24:47 49° WSW 19:24:47 49° WSW visible
25 Jan -3.8 18:30:56 10° SW 18:34:12 66° SSE 18:35:41 29° ENE visible
25 Jan -0.5 20:07:51 10° W 20:08:24 14° WNW 20:08:24 14° WNW visible
26 Jan -2.9 19:16:13 10° W 19:19:13 43° NNW 19:19:13 43° NNW visible
27 Jan -3.6 18:24:40 10° WSW 18:27:57 63° NNW 18:30:00 21° NE visible
27 Jan -0.7 20:01:59 10° WNW 20:02:43 15° WNW 20:02:43 15° WNW visible
28 Jan -2.5 19:10:19 10° WNW 19:13:20 31° N 19:13:26 31° N visible
29 Jan -2.8 18:18:38 10° W 18:21:46 38° NNW 18:24:07 15° NE visible
29 Jan -1.0 19:55:57 10° WNW 19:56:50 16° NW 19:56:50 16° NW visible
30 Jan -2.4 19:04:21 10° WNW 19:07:14 27° N 19:07:30 27° N visible
31 Jan -2.5 18:12:40 10° WNW 18:15:37 29° N 18:18:09 13° NE visible
31 Jan -1.3 19:49:42 10° NW 19:50:52 18° NW 19:50:52 18° NW visible
01 Feb -2.6 18:58:11 10° NW 19:01:07 28° N 19:01:32 27° NNE visible
02 Feb -2.4 18:06:35 10° WNW 18:09:28 27° N 18:12:12 11° ENE visible
02 Feb -1.8 19:43:18 10° NW 19:44:55 25° NW 19:44:55 25° NW visible
